Weather History for Friday Harbor, WA

Change the Weather History Date:

Wednesday, March 6, 2013

  Actual Average Record
Temperature  
Mean Temperature 40 °F -  
Max Temperature 42 °F 47 °F 61 °F (2007)
Min Temperature 39 °F 35 °F 25 °F (2002)
Degree Days  
Heating Degree Days 24    
Moisture  
Dew Point 39 °F    
Average Humidity 93    
Maximum Humidity 100    
Minimum Humidity 81    
Precipitation  
Precipitation 0.00 in - - ()
Sea Level Pressure  
Sea Level Pressure 29.72 in    
Wind  
Wind Speed 6 mph (NW)    
Max Wind Speed 13 mph    
Max Gust Speed 20 mph    
Visibility 9 miles    
Events Rain    
Averages and records for this station are not official NWS values.
T = Trace of Precipitation, MM = Missing Value Source: NWS Daily Summary

Daily Weather History Graph

Daily Weather History Graph

Search for Another Location

Airport:

Trip Planner

Search our weather history database for the weather conditions in past years. The results will help you decide how hot, cold, wet, or windy it might be!

Date:

Astronomy

Mar. 06, 2013 Rise Set
Actual Time 6:42 AM PST 6:04 PM PST
Civil Twilight 6:11 AM PST 6:35 PM PST
Nautical Twilight 5:35 AM PST 7:11 PM PST
Astronomical Twilight 4:58 AM PST 7:48 PM PST
Moon 3:17 AM PST (3/6) 12:32 PM PST (3/6)
Length of Visible Light 12h 23m
Length of Day
11h 21m
Waning Crescent, 29% of the Moon is Illuminated
Mar 6
Waning Crescent
Mar 11
New
Mar 19
First Quarter
Mar 27
Full
Apr 2
Last Quarter

Hourly Weather History & Observations

Time (PST) Temp. Windchill Dew Point Humidity Pressure Visibility Wind Dir Wind Speed Gust Speed Precip Events Conditions
12:53 AM 41.0 °F 36.4 °F 39.0 °F 93% 29.75 in 10.0 mi North 6.9 mph - N/A   Overcast
1:53 AM 42.1 °F 38.4 °F 39.0 °F 89% 29.73 in 10.0 mi North 5.8 mph - N/A   Overcast
2:53 AM 42.1 °F 37.1 °F 37.9 °F 85% 29.71 in 10.0 mi North 8.1 mph - N/A   Overcast
3:53 AM 42.1 °F 36.6 °F 37.9 °F 85% 29.68 in 10.0 mi NNW 9.2 mph - N/A   Overcast
4:53 AM 41.0 °F 35.2 °F 37.9 °F 89% 29.66 in 10.0 mi North 9.2 mph - N/A   Overcast
5:53 AM 41.0 °F 33.9 °F 37.9 °F 89% 29.65 in 10.0 mi North 12.7 mph 18.4 mph N/A   Overcast
6:22 AM 41.0 °F 35.8 °F 37.4 °F 87% 29.64 in 10.0 mi North 8.1 mph - N/A   Overcast
6:44 AM 41.0 °F 35.8 °F 37.4 °F 87% 29.64 in 10.0 mi North 8.1 mph - N/A   Overcast
6:53 AM 41.0 °F 36.4 °F 37.9 °F 89% 29.64 in 10.0 mi North 6.9 mph 16.1 mph N/A   Overcast
7:02 AM 41.0 °F 36.4 °F 37.4 °F 87% 29.64 in 10.0 mi Variable 6.9 mph - N/A   Overcast
7:53 AM 41.0 °F 35.2 °F 37.9 °F 89% 29.63 in 10.0 mi NNW 9.2 mph - N/A   Overcast
8:21 AM 41.0 °F 35.8 °F 37.4 °F 87% 29.64 in 10.0 mi NNW 8.1 mph 16.1 mph N/A   Overcast
8:35 AM 42.8 °F 38.0 °F 37.4 °F 81% 29.64 in 10.0 mi North 8.1 mph - N/A   Overcast
8:53 AM 42.1 °F 36.1 °F 37.9 °F 85% 29.64 in 10.0 mi North 10.4 mph 19.6 mph N/A   Overcast
9:53 AM 42.1 °F 38.4 °F 39.0 °F 89% 29.65 in 8.0 mi NNW 5.8 mph - 0.00 in Rain Light Rain
10:53 AM 41.0 °F 38.0 °F 39.0 °F 93% 29.65 in 6.0 mi Variable 4.6 mph - 0.00 in Rain Light Rain
11:53 AM 41.0 °F 38.0 °F 39.0 °F 93% 29.67 in 8.0 mi NNW 4.6 mph - 0.00 in Rain Light Rain
12:53 PM 41.0 °F - 39.0 °F 93% 29.68 in 6.0 mi Calm Calm - 0.00 in Rain Light Rain
1:00 PM 42.8 °F - 39.2 °F 87% 29.68 in 5.0 mi Calm Calm - 0.00 in Rain Light Rain
1:53 PM 41.0 °F - 39.0 °F 93% 29.69 in 9.0 mi Calm Calm - 0.00 in Rain Light Rain
2:53 PM 42.1 °F - 39.9 °F 92% 29.71 in 8.0 mi Calm Calm - 0.00 in Rain Light Rain
3:53 PM 41.0 °F - 39.9 °F 96% 29.72 in 7.0 mi Calm Calm - 0.00 in Rain Light Rain
4:43 PM 41.0 °F 39.0 °F 39.2 °F 93% 29.74 in 6.0 mi SW 3.5 mph - 0.00 in Rain Light Rain
4:53 PM 39.9 °F - 39.0 °F 97% 29.74 in 6.0 mi Calm Calm - 0.00 in Rain Light Rain
5:53 PM 39.9 °F - 39.0 °F 97% 29.75 in 9.0 mi Calm Calm - 0.00 in Rain Light Rain
6:53 PM 39.0 °F - 39.0 °F 100% 29.78 in 10.0 mi Calm Calm - 0.00 in Rain Light Rain
7:04 PM 39.2 °F - 39.2 °F 100% 29.78 in 10.0 mi Calm Calm - 0.00 in Rain Light Rain
7:09 PM 39.2 °F 37.0 °F 39.2 °F 100% 29.78 in 10.0 mi SSW 3.5 mph - 0.00 in Rain Light Rain
7:33 PM 39.2 °F 35.9 °F 39.2 °F 100% 29.79 in 10.0 mi SSW 4.6 mph - 0.00 in Rain Light Rain
7:53 PM 39.9 °F 36.7 °F 39.9 °F 100% 29.80 in 9.0 mi SSW 4.6 mph - 0.00 in Rain Light Rain
8:32 PM 39.2 °F 37.0 °F 39.2 °F 100% 29.82 in 9.0 mi SSW 3.5 mph - 0.00 in Rain Light Rain
8:53 PM 39.9 °F 36.7 °F 39.0 °F 97% 29.83 in 10.0 mi South 4.6 mph - 0.00 in Rain Light Rain
9:53 PM 39.0 °F 36.8 °F 39.0 °F 100% 29.85 in 10.0 mi South 3.5 mph - 0.00 in Rain Light Rain
10:53 PM 39.0 °F 36.8 °F 39.0 °F 100% 29.88 in 10.0 mi South 3.5 mph - 0.00 in Rain Light Rain
11:53 PM 39.0 °F - 39.0 °F 100% 29.89 in 10.0 mi Calm Calm - 0.00 in Rain Light Rain